Regional Weather Roundup
Issued by NWS

Home | Current Version | Previous Version | Graphics & Text | Print | Product List | Glossary Off
Versions: 1 2 3 4 5 6 7 8 9 10 11 12 13 14 15 16 17 18 19 20 21 22 23 24 25 26 27 28 29 30 31 32 33 34 35 36 37 38 39 40 41 42 43 44 45 46 47 48 49 50

000
ASUS43 KMKX 120311
RWRWI

WISCONSIN REGIONAL WEATHER ROUNDUP
NATIONAL WEATHER SERVICE MILWAUKEE/SULLIVAN WI
1000 PM CDT FRI JUL 11 2014

NOTE: "FAIR" INDICATES FEW OR NO CLOUDS BELOW 12,000 FEET WITH NO
SIGNIFICANT WEATHER AND/OR OBSTRUCTIONS TO VISIBILITY.

WIZ001-002-006>008-014>016-023>028-120400-
NORTHWEST WISCONSIN

CITY           SKY/WX    TMP DP  RH WIND       PRES   REMARKS
SUPERIOR ARPT  PTCLDY    66  64  94 SW8       29.96S
ASHLAND        PTCLDY    69  64  84 S8        29.98R
HAYWARD        PTCLDY    69  67  93 SW5       30.02R
SIREN          CLEAR     69  67  90 S3        30.01R
RICE LAKE      CLOUDY    71  65  83 SE5       30.03S
LADYSMITH      CLOUDY    71  65  82 S3        30.05S
EAU CLAIRE     CLOUDY    74  67  78 S7        30.02R
MENOMONIE      CLOUDY    73  67  80 S3        30.02R
NEW RICHMOND   CLOUDY    73  67  80 S7        30.02R
OSCEOLA        PTCLDY    72  70  95 CALM      30.03R
$$

WIZ003>005-009-010-017-018-120400-
NORTH CENTRAL WISCONSIN

CITY           SKY/WX    TMP DP  RH WIND       PRES   REMARKS
WOODRUFF       CLOUDY    69  63  80 SW6       30.05S
RHINELANDER    CLOUDY    67  58  72 SW8       30.07S
EAGLE RIVER    CLOUDY    68  58  69 SW7       30.04S
LAND O LAKES   CLOUDY    69  60  72 SW10G16   30.05R
PHILLIPS       CLOUDY    66  64  92 S5        30.04S
TOMAHAWK       CLOUDY    67  60  76 CALM      30.07S
MEDFORD        CLOUDY    67  63  85 S7        30.06S
MERRILL        CLOUDY    69  60  72 S5        30.07R
$$

WIZ029-030-035-036-043>047-120400-
CENTRAL WISCONSIN

CITY           SKY/WX    TMP DP  RH WIND       PRES   REMARKS
WAUSAU         CLOUDY    71  59  65 S12       30.05S
MOSINEE        CLOUDY    68  61  77 S12       30.07F
MARSHFIELD     MOCLDY    68  62  81 S9        30.06S
STEVENS POINT  CLOUDY    68  57  66 S8        30.09S
WAUPACA        CLOUDY    70  60  69 S3        30.09S
WAUTOMA        MOCLDY    70  60  70 CALM      30.09R
WISC RAPIDS    CLOUDY    71  60  68 S5        30.09S
CAMP DOUGLAS   LGT RAIN  70  66  87 E2        30.08R
$$

WIZ011>013-019>022-031-037>040-048>050-120400-
NORTHEAST WISCONSIN

CITY           SKY/WX    TMP DP  RH WIND       PRES   REMARKS
ANTIGO         CLOUDY    67  57  70 S8        30.08S
STURGEON BAY   MOCLDY    66  54  63 S9        30.09R
GREEN BAY      MOCLDY    71  57  61 S6        30.09R
MANITOWOC      CLOUDY    69  53  56 SW5       30.11R
APPLETON       MOCLDY    70  55  60 S7        30.10R
CLINTONVILLE   CLOUDY    70  55  60 S3        30.08S
OSHKOSH        MOCLDY    67  59  75 S6        30.09S
$$

WIZ032>034-041-042-053>061-120400-
SOUTHWEST WISCONSIN

CITY           SKY/WX    TMP DP  RH WIND       PRES   REMARKS
LA CROSSE      CLOUDY    75  65  70 S9        30.04R
SPARTA         CLOUDY    72  63  73 SE3       30.07S
VIROQUA        CLOUDY    70  64  80 SE7       30.08S
BOSCOBEL       CLOUDY    74  64  71 CALM      30.06S
PRAIRIE DU CHI MOCLDY    72  64  75 E5        30.05S
PLATTEVILLE    MOCLDY    71  64  80 SE8       30.09S
$$

WIZ056-057-062-063-064-067-068-120400-
SOUTH CENTRAL WISCONSIN

CITY           SKY/WX    TMP DP  RH WIND       PRES   REMARKS
BARABOO/DELLS  MOCLDY    68  60  75 CALM      30.09S
LONE ROCK      CLOUDY    75  64  68 S5        30.08R
WATERTOWN      PTCLDY    66  57  72 SE5       30.11S
MADISON        MOCLDY    72  59  63 S6        30.10S
MIDDLETON      CLOUDY    73  58  59 S7        30.10S
MONROE         CLOUDY    70  63  78 S9        30.10S
JANESVILLE     MOCLDY    70  61  73 SE5       30.11S
$$

WIZ051-052-058>065-066-070>072-120400-
SOUTHEAST WISCONSIN

CITY           SKY/WX    TMP DP  RH WIND       PRES   REMARKS
MILWAUKEE      MOCLDY    68  56  65 S5        30.12S
WAUKESHA       PTCLDY    64  54  68 SE5       30.14R
MILWAUKEE/TIMM PTCLDY    68  52  56 S3        30.13R
RACINE         MOCLDY    69  59  70 S6        30.14S
BURLINGTON     MOCLDY    66  61  85 CALM      30.13R
KENOSHA        MOCLDY    69  59  70 S5        30.13S
FOND DU LAC    PTCLDY    65  56  72 S5        30.10S
SHEBOYGAN      CLOUDY    67  53  61 S5        30.11S
WEST BEND      CLEAR     64  50  59 CALM      30.12R
JUNEAU         PTCLDY    67  41  38 SE7       30.12R
$$

LSZ147-162-120400-
LAKE SUPERIOR

STATION/POSITION TIME  TEMP    WIND        PRES    WAVE
                       AIR SEA DIR/SP/G            HT/PER
                 (UTC) (F)     (DEG/KT/KT) (MB)    (FT/S)
W MID LAKE BUOY  0250   52 38  210/  8/ 10 1013.9F   1
PORT WING        0200   72     190/  9/ 13 1014.2
SAXON HARBOR     0200          200/  2/  8 1014.6R
$$

LMZ867-665-643>646-120400-
LAKE MICHIGAN

STATION/POSITION TIME  TEMP    WIND        PRES    WAVE
                       AIR SEA DIR/SP/G            HT/PER
                 (UTC) (F)     (DEG/KT/KT) (MB)    (FT/S)
N MID LAKE BUOY  0250   60 53  200/ 16/ 17 1017.8F   3/ 5
NORTHPORT PIER   0200   67     170/  8/ 12 1018.3S
SISTER BAY       0155   70     200/ 18/ 21   N/A
KEWAUNEE LAKESHO 0200   55     180/  8/  9 1019.3F
SHEBOYGAN LAKESH 0300   69     190/ 11/ 12 1019.4F
PORT WASHINGTON  0200   63     190/  5/  8 1020.3R
MILWAUKEE LAKESH 0200   62     180/  3/  4   N/A
S MID LAKE BUOY  0250   64 62  130/  8/  8 1020.3S   0
KENOSHA   LAKESH 0300   64     170/  4/  6   N/A
$$

TC  - TEMPERATURE IN CELSIUS
VSB - VISIBILITY IN STATUTE MILES
WCI - WIND CHILL INDEX
HX  - HEAT INDEX




USA.gov is the U.S. government's official web portal to all federal, state and local government web resources and services.